Alexander / Asics Invitational 2016 vs Alexander HS / Asics XC Invitational 2014

Aggregate Data Points
Difference This Meet That Meet
Overall Athletes +389 2158 1769
Overall Average +40.23 22:41.72 22:01.49
1st-10th Place +28.35 15:51.66 15:23.31
1st-25th Place +31.66 16:06.23 15:34.57
1st-50th Place +29.34 16:23.04 15:53.70
1st-100th Place +26.27 16:47.34 16:21.06
Common Athletes -- -- 307
Ran Faster 61 184 123
Ran Season Best -78 83 161
Average Time -19.19 21:14.10 21:33.28
Median Time -19.58 20:30.41 20:49.99
Middle 80% Times -21.13 20:52.76 21:13.89
Top 10% Times -32.48 16:36.42 17:08.90
Top 25% Times -34.25 17:22.17 17:56.41
Top 50% Times -32.56 18:21.78 18:54.33
Bottom 50% Times -5.69 23:58.14 24:03.83
Bottom 25% Times -3.85 26:20.96 26:24.81
Bottom 10% Times +9.84 28:50.67 28:40.83
Average Difference -19.19 -- --
Median Difference -1:16.05 -- --
Middle 80% Difference -22.84 -- --
Top 10% Difference -17.88 -- --
Top 50% Difference -28.45 -- --
Top 25% Difference -26.94 -- --
Top 50% Difference -28.45 -- --
Bottom 50% Difference -10.29 -- --
Bottom 25% Difference -14.72 -- --
Bottom 10% Difference +3.65 -- --

Performances of Common Athletes
Athlete Team Difference This Meet That Meet
Chase Kennedy East Jackson High School -25.02 15:23.98 15:49.00
Chandler Kennedy East Jackson High School +51.99 16:16.99 15:25.00
Braeden Collins Alexander -1:19.73 15:41.27 17:01.00
Harry Harp Whitewater High School -37.09 16:04.01 16:41.10
Adrian Hernandez Allatoona HS -1:02.17 16:08.03 17:10.20
Hayden Hasberger Northgate -1:53.23 16:09.98 18:03.21
Tyler Whorton Alexander -1:02.54 16:11.86 17:14.40
Robert Chappell Alpharetta -3:37.95 16:16.85 19:54.80
Jackson Reilly Norcross High School -2:40.64 16:17.71 18:58.35
Brennan Silliman Woodward Academy -10.88 16:20.82 16:31.70
Zach Morgan Cambridge HS -30.29 16:21.00 16:51.29
Austin Muse Alexander -46.61 16:23.69 17:10.30
Ben Davies Holy Innocents' Episcopal School +4.04 16:32.14 16:28.10
Vladimir Zander-Velloso McIntosh High School -2:03.61 16:30.99 18:34.60
K.j. Hirschi Cambridge HS -3.74 16:32.99 16:36.73
Colby Wiesman Apollo -25.30 16:37.14 17:02.44
Joshua Tysor Starrs Mill High School +17.49 16:55.09 16:37.60
Harrison Morris Oconee County High School -1:46.23 16:38.90 18:25.13
Jake Hadden Oconee County High School -38.14 16:42.42 17:20.56
Kermit Jackson Landmark Christian School -1:38.99 16:46.64 18:25.63
Warren Taylor Alexander -4:00.86 16:49.13 20:49.99
Seth Cruver Landmark Christian School -47.95 16:49.42 17:37.37
Ethridge Chaisson East Jackson High School +31.40 17:21.50 16:50.10
Connor Rudzinski Whitewater High School -41.36 16:50.84 17:32.20
Will Hatchett Habersham Central High School +1:59.39 18:52.09 16:52.70
Luke Cassidy Siegel High School -1:18.02 16:56.99 18:15.01
Jalen Taylor Apollo -21.75 17:08.99 17:30.74
Nikita Fopiano Siegel High School -1:21.34 17:10.19 18:31.53
Sherman Dewey Northgate -54.66 17:11.35 18:06.01
Thomas Hall Whitewater High School -49.39 17:12.11 18:01.50
Chandler Scoggins Providence Christian Academy -2:02.09 17:12.88 19:14.97
Bobby VanBrackle Cambridge HS -1:24.66 17:15.02 18:39.68
Connor Donahue Starrs Mill High School +34.57 17:49.97 17:15.40
James Hartley Whitewater High School +30.60 17:46.90 17:16.30
Zach Ellison Cambridge HS -1:33.57 17:19.57 18:53.14
Matt Hogan Cambridge HS -37.23 17:20.46 17:57.69
Mark Humphries Landmark Christian School -1:15.79 17:20.69 18:36.48
Zack Truitt Landmark Christian School -1:07.95 17:25.10 18:33.05
Colby Ertwine Cambridge HS -1:20.54 17:25.87 18:46.41
James Devine Holy Innocents' Episcopal School +0.83 17:28.03 17:27.20
Jack Cenatempo Woodward Academy -1:14.70 17:27.80 18:42.50
Luke Murray Galloway +39.76 18:08.86 17:29.10
Chris Bunner Norcross High School -34.54 17:29.56 18:04.10
Nathan Eason Sandy Creek +16.08 17:46.44 17:30.36
Titus Williams Siegel High School -11.42 17:30.88 17:42.30
Sam Riviere Woodward Academy -1:49.34 17:32.70 19:22.04
Cameron Jones Siegel High School -23.83 17:35.80 17:59.63
John Karafanda McIntosh High School -1:19.42 17:36.51 18:55.93
Anthony Verdirame North Forsyth +23.19 18:00.46 17:37.27
Jackson Watson Dunwoody +43.45 18:20.84 17:37.39
Colin O'Neal Oconee County High School -1:06.18 17:42.56 18:48.74
Andrew Duffie Providence Christian Academy +33.61 18:16.58 17:42.97
Ryan Stark Norcross High School -3:51.87 17:42.97 21:34.84
Wesley Aycock Whitewater High School -59.86 17:45.64 18:45.50
Max Marion Dunwoody +1:32.53 19:20.82 17:48.29
Isaac Garcia Berkmar High School -44.42 17:48.61 18:33.03
Garrison Taylor Oconee County High School -39.55 17:50.99 18:30.54
Alex Van Schoor Galloway +0.73 17:53.63 17:52.90
Arthur (Cole) Elrod Starrs Mill High School -2:05.84 17:53.00 19:58.84
Andrew Bush Villa Rica +4.58 17:58.33 17:53.75
Chance Perkins Siegel High School -2.20 17:55.10 17:57.30
Aaron Vermillion Allatoona HS -1:57.85 17:58.99 19:56.84
Oliver Melton Apollo +40.79 18:40.10 17:59.31
Nicole Fegans Landmark Christian School -4:07.31 17:59.95 22:07.26
Devin Lohman Starrs Mill High School +4:27.35 22:27.62 18:00.27
Mark Wetherly Blessed Trinity -2:35.20 18:00.47 20:35.67
Andrew Alberts Sandy Creek +42.51 18:43.65 18:01.14
Justin Seymour McEachern High School -1:11.34 18:01.19 19:12.53
Zach Henry Holy Innocents' Episcopal School -2.22 18:02.08 18:04.30
Will Scott Apollo -8.46 18:02.77 18:11.23
Andrew Valbuena South Paulding HS -14.99 18:02.98 18:17.97
Rylan Heisser Allatoona HS +42.86 18:47.36 18:04.50
Brian Smith Woodward Academy -1:11.75 18:04.65 19:16.40
David Llanes Berkmar High School -36.53 18:08.17 18:44.70
Zain Bashey Holy Innocents' Episcopal School +14.42 18:23.02 18:08.60
Josh Sherman Woodward Academy -1:28.59 18:10.35 19:38.94
Timothy Buchanan Wheeler High School -35.09 18:10.46 18:45.55
Caleb Hall Providence Christian Academy -15.72 18:11.03 18:26.75
Houston Gore Apollo -50.93 18:12.60 19:03.53
Gabriel Peacock Morrow High School -3:22.89 18:13.21 21:36.10
Will Domescik Holy Innocents' Episcopal School -2:34.49 18:13.29 20:47.78
Chase Hartman Buford High School +1.54 18:15.54 18:14.00
Sue Ann Morales East Jackson High School -35.25 18:18.30 18:53.55
Spencer Dooley North Forsyth -53.30 18:18.33 19:11.63
Hayden Guthrie Oconee County High School -1:09.67 18:18.64 19:28.31
Javier Murueta Norcross High School -48.29 18:19.07 19:07.36
Delaney Graham Westminster School -18.94 18:19.08 18:38.02
John Henson Starrs Mill High School -2:20.71 18:23.47 20:44.18
Baylor Rainbow Holy Innocents' Episcopal School +55.86 19:20.06 18:24.20
James Burgett Chamblee -1:00.11 18:24.24 19:24.35
Aidan Smith Buford High School -1:48.59 18:27.42 20:16.01
Luke Simmons Wheeler High School +24.37 18:56.09 18:31.72
Rasheed Cobb Chamblee -2:28.03 18:33.01 21:01.04
Victoria Simmons Siegel High School -24.53 18:33.69 18:58.22
Kendall Hilinski Starrs Mill High School -11.46 18:38.43 18:49.89
Hunter Cobb South Paulding HS +54.29 19:37.89 18:43.60
Kelton McConnell Oconee County High School -1:25.42 18:44.01 20:09.43
Ethan Herod Dunwoody +46.07 19:30.23 18:44.16
Les Mackey Apollo -1:09.80 18:44.48 19:54.28
Sidney Miller Starrs Mill High School -3:28.67 18:47.34 22:16.01
Sarah Foreman Landmark Christian School -1:06.89 18:50.10 19:56.99
Chris Kojali Starrs Mill High School -1:25.25 18:50.36 20:15.61
Koby Conklin Siegel High School -40.58 18:51.15 19:31.73
Simon Corrigan Blessed Trinity -54.44 18:51.78 19:46.22
Peter Johnson Galloway -1:48.64 18:54.02 20:42.66
Austin Hatch North Cobb Christian -41.53 18:54.61 19:36.14
Kiev Johnson Peachtree Ridge High School -4:34.14 18:55.03 23:29.17
Mary Valli Starrs Mill High School +8.28 19:08.86 19:00.58
Stuart Gordon Woodward Academy +17.60 19:18.70 19:01.10
Mary Kellison Thorne Landmark Christian School -1:38.74 19:01.22 20:39.96
Drew DeHaven Holy Innocents' Episcopal School +2.61 19:04.81 19:02.20
Samantha Cameron Dunwoody -9.44 19:05.64 19:15.08
Avery Savage Central High School +1:35.33 20:41.19 19:05.86
Gabby Bunnell Westminster School +4:07.69 23:15.66 19:07.97
Junesoo Byun Peachtree Ridge High School -1.91 19:08.03 19:09.94
Yonathan Mengistu Sandy Creek -41.00 19:11.02 19:52.02
Nolan Tanner Blessed Trinity -23.98 19:11.82 19:35.80
John Scott Woodward Academy -28.09 19:12.43 19:40.52
Derrell Durr Alexander -23.51 19:13.86 19:37.37
Liam Henderson Chamblee +56.18 20:10.73 19:14.55
Kenedy Thorne Alpharetta +27.83 19:42.80 19:14.97
Maddie Heller Blessed Trinity -54.61 19:16.25 20:10.86
Jordan Castenada Habersham Central High School +20.89 19:37.24 19:16.35
Jarred Benvenuto North Forsyth +26.55 19:43.32 19:16.77
Beining Xiao Chamblee -4:27.45 19:17.06 23:44.51
John Ellison Starrs Mill High School +7.13 19:28.89 19:21.76
Michael Labine Sandy Creek -10.84 19:22.76 19:33.60
Ryan Cost Newnan High School +47.48 20:10.70 19:23.22
Patrick Kelly Starrs Mill High School -2:22.10 19:23.45 21:45.55
Vincent Gazzo Peachtree Ridge High School +21.14 19:44.64 19:23.50
Ben Planer Dunwoody +48.57 20:12.26 19:23.69
Ashley McMahon Whitewater High School +43.26 20:07.36 19:24.10
Sydney Hendricks Providence Christian Academy +4:32.10 23:57.27 19:25.17
Mattheus Torris Starrs Mill High School -0.94 19:25.27 19:26.21
Brendan Hudgins Blessed Trinity -31.36 19:25.35 19:56.71
Jake McMahon Whitewater High School -5:02.00 19:26.03 24:28.03
Bryce Smith Starrs Mill High School +19.77 19:53.20 19:33.43
Lindsey Biggar Landmark Christian School -2:20.07 19:34.86 21:54.93
Atiba Tolbert Berkmar High School -3.10 19:36.48 19:39.58
Elise Glorvigen Northgate -1:19.14 19:37.22 20:56.36
Emma Rose Bagwell Blessed Trinity +49.19 20:27.13 19:37.94
Maggie O'Leary Norcross High School +13.75 19:52.17 19:38.42
Christian Potts Central High School -10.33 19:39.91 19:50.24
Grant Burke Chamblee -7.77 19:40.29 19:48.06
Brandon Shockley Dunwoody -24.23 19:40.77 20:05.00
Stiles Kellett Woodward Academy -1:58.35 19:41.38 21:39.73
Enrique Pujals Blessed Trinity -10.59 19:41.66 19:52.25
Rachel Ward McIntosh High School +1:12.77 20:59.72 19:46.95
Austin Woodall Habersham Central High School -1:16.05 19:53.47 21:09.52
Michael Wahl Apollo +1:16.84 21:11.70 19:54.86
Brandon Jones Siegel High School -53.53 19:58.64 20:52.17
Kevin Liow McIntosh High School +1:49.87 21:49.98 20:00.11
Spencer Arndt Blessed Trinity -2:34.95 20:01.74 22:36.69
Rachel Strayer Siegel High School -32.55 20:05.56 20:38.11
Carleigh Hyser Blessed Trinity -1:00.47 20:07.29 21:07.76
Matthew Lynch Chamblee -5:20.40 20:09.08 25:29.48
Daniel East Holy Innocents' Episcopal School +1:44.36 21:53.93 20:09.57
Caroline Nelson Northgate -12.25 20:11.77 20:24.02
Beau Barnette Habersham Central High School +24.15 20:37.48 20:13.33
Jackson Pellegrini Holy Innocents' Episcopal School +24.43 20:42.45 20:18.02
Noah Wilson Landmark Christian School -37.38 20:22.53 20:59.91
Sam Collins Woodward Academy -2.23 20:26.88 20:29.11
Josh Totten South Paulding HS +13.76 20:42.84 20:29.08
Chloe Phelps Cambridge HS +25.35 20:55.46 20:30.11
Courtney Stuart Alpharetta -1:49.06 20:30.16 22:19.22
Chloe Paskins Cambridge HS +26.05 20:56.34 20:30.29
Alicia Johnson Alpharetta -11.04 20:30.41 20:41.45
Anna Munns Blessed Trinity -49.47 20:32.20 21:21.67
Shaylan Patel Woodward Academy -32.64 20:33.33 21:05.97
Erin Marsh Buford High School +2:49.80 23:24.27 20:34.47
Patrick Brodeur Allatoona HS -21.02 20:37.72 20:58.74
Sarah Davis Buford High School +14.34 20:52.29 20:37.95
Travis Thurber Holy Innocents' Episcopal School -4:16.07 20:44.24 25:00.31
Kaleb Eaton Alexander +3.31 20:47.91 20:44.60
Alexandra Womble Dunwoody +38.74 21:24.45 20:45.71
Brianna Sattinger McIntosh High School +7.32 20:54.66 20:47.34
Maddie Turner Westminster School +17.96 21:05.91 20:47.95
Gaby Pascual Woodward Academy -40.66 20:51.04 21:31.70
Emma Fairlie Alpharetta -47.67 20:52.84 21:40.51
Mary Grace Lesesne Woodward Academy +58.38 21:54.17 20:55.79
Sam Gross South Paulding HS -4:43.32 20:57.54 25:40.86
Paul Jung Peachtree Ridge High School -5:11.34 20:57.82 26:09.16
Marshall Findlay Allatoona HS -2:28.71 20:58.60 23:27.31
Michael Sullivan Blessed Trinity +2:55.55 23:56.05 21:00.50
Anna Lee Woodward Academy -21.01 21:02.04 21:23.05
Anna Huntington Providence Christian Academy +51.21 21:56.93 21:05.72
Margaret Brehm Alpharetta -1:28.27 21:09.06 22:37.33
Katie Dorton Woodward Academy +17.49 21:27.08 21:09.59
Samantha Seidel Woodward Academy +5:19.73 26:34.46 21:14.73
Julia Jack Cambridge HS +2:06.40 23:21.37 21:14.97
Emma McLaughlin Siegel High School -1:52.55 21:16.67 23:09.22
Simon Free Habersham Central High School -1:12.13 21:16.75 22:28.88
Chloe Thomas Dunwoody +34.50 21:51.55 21:17.05
Megan Roddenbery Holy Innocents' Episcopal School -16.94 21:19.73 21:36.67
Julie Hensley Dunwoody +2:18.00 23:38.77 21:20.77
Caroline Dill Dunwoody +1:30.52 22:51.52 21:21.00
Daniel VanHoozer Whitewater High School -16.58 21:23.10 21:39.68
Nathan Phillips Northgate +1:31.82 22:58.46 21:26.64
Matthew Cobb South Paulding HS -3:22.89 21:30.18 24:53.07
Erin Cole Blessed Trinity +1:11.95 22:45.33 21:33.38
Jules Mead Alpharetta +1:50.03 23:24.67 21:34.64
John Sargent Apollo -18.52 21:34.98 21:53.50
Betsy Blitch Westminster School +2:35.66 24:11.41 21:35.75
Sam Levy Galloway +2:00.71 23:36.56 21:35.85
Meredith Rielly Northgate -6:34.20 21:35.90 28:10.10
Makira Walton Starrs Mill High School +9.76 21:48.24 21:38.48
Christian Boulanger Allatoona HS -4:05.90 21:39.43 25:45.33
Jack Slagle Providence Christian Academy +18.77 21:59.01 21:40.24
Shealyn Brooks Cambridge HS -22.77 21:43.39 22:06.16
Meredith Tilton Allatoona HS -2:54.59 21:45.40 24:39.99
Sean Moran Blessed Trinity -58.37 21:45.57 22:43.94
Tarin Sule Allatoona HS +3:06.07 24:53.05 21:46.98
Analucia Yanar Sandy Creek +1:45.05 23:34.23 21:49.18
Aman Patel Woodward Academy +2:14.77 24:06.89 21:52.12
Marlena Sculac Blessed Trinity +3:36.49 25:29.38 21:52.89
Florida Huff Westminster School +2:50.14 24:44.52 21:54.38
Molly Echols Woodward Academy +49.54 22:45.86 21:56.32
Jonah Hill South Paulding HS +1:20.08 23:16.89 21:56.81
Sophie Crane Galloway -1:18.90 21:57.15 23:16.05
Avery Miller Habersham Central High School +1:53.24 23:50.91 21:57.67
Saffiya Bashey Holy Innocents' Episcopal School -2:59.01 22:00.06 24:59.07
Sami Krinsky Galloway -16.38 22:05.06 22:21.44
Kimrey Gentry Allatoona HS +29.51 22:34.81 22:05.30
Maxwell Stephens Chamblee -17.24 22:05.91 22:23.15
Daniel Huff Central High School -6.20 22:09.41 22:15.61
Kate Holbrook Habersham Central High School +38.70 22:52.31 22:13.61
Connor Blake Allatoona HS -1:05.08 22:14.29 23:19.37
Amelia Franzen Norcross High School -2:25.99 22:22.66 24:48.65
Max White Woodward Academy +44.00 23:09.30 22:25.30
Megan Fisher Blessed Trinity +30.89 23:00.04 22:29.15
Justin Hentz Blessed Trinity -1:50.61 22:29.76 24:20.37
Tyler Woodall Habersham Central High School -2:47.96 22:31.32 25:19.28
Jenny Goodwin Landmark Christian School -1:52.40 22:32.49 24:24.89
Joshua Olson Trinity Sharpsburg Christian School -54.93 22:34.07 23:29.00
Grace Englert Woodward Academy +1:39.49 24:14.88 22:35.39
Kate Taylor Whitefield Academy -1:14.32 22:38.66 23:52.98
Clara Comiskey McIntosh High School +9:03.81 31:42.64 22:38.83
Mallory Larson Providence Christian Academy +5:18.95 27:57.88 22:38.93
Delaney Sheehan Blessed Trinity -17.29 22:42.49 22:59.78
Alex Slaughter Woodward Academy +4:21.26 27:06.12 22:44.86
Agnes Kumi Blessed Trinity -12:34.20 22:45.79 35:19.99
Sydney Tuttle Northgate -2:10.45 22:49.14 24:59.59
Hannah Wilde McIntosh High School +6:07.81 29:03.07 22:55.26
Brent Hohn Cambridge HS -7:11.70 22:55.64 30:07.34
Madeline Moore Peachtree Ridge High School +1:20.53 24:16.37 22:55.84
Klara Lou Westminster School -41.64 22:56.77 23:38.41
Megan Crozier Oconee County High School -17.66 22:57.22 23:14.88
Max Andrist South Paulding HS -10.83 22:59.00 23:09.83
Annabel Ward Holy Innocents' Episcopal School +1:30.86 24:34.30 23:03.44
Anna Wilkinson Westminster School +1:48.54 24:54.04 23:05.50
Brenda Ayuk Alexander +2:16.39 25:22.80 23:06.41
Gram Smith Providence Christian Academy -1:23.67 23:12.04 24:35.71
Chiara Dwier Norcross High School -1:57.77 23:21.16 25:18.93
Isabel Gerondelis Chamblee -1:03.40 23:25.61 24:29.01
Caroline Little Galloway +31.00 24:06.75 23:35.75
Lucy Grubb Peachtree Ridge High School +24.02 24:13.97 23:49.95
Lia Teng Norcross High School +1:22.57 25:14.38 23:51.81
Ansley Griffis Peachtree Ridge High School -36.70 23:54.63 24:31.33
Haley Miller Allatoona HS -36.79 24:04.45 24:41.24
Alissa Kiefer Westminster School +6.35 24:13.53 24:07.18
Casey Schafer Siegel High School -2:35.87 24:11.74 26:47.61
Grace Carlson Blessed Trinity +2:51.80 27:08.73 24:16.93
Mimi Cooper Westminster School +1:36.43 25:54.45 24:18.02
Katie Miller Blessed Trinity -1:05.94 24:22.06 25:28.00
Shanna Murphy McEachern High School +52.25 25:21.96 24:29.71
Micayla Cochran Westminster School +51.19 25:23.12 24:31.93
Sophie Sidman Woodward Academy -2:49.22 24:36.19 27:25.41
Anna Timm Providence Christian Academy -51.57 24:38.06 25:29.63
Ellen Buchanan Westminster School -2:58.04 24:40.15 27:38.19
Chloe Hyatt Chamblee +53.58 25:38.40 24:44.82
Meghan Telling Allatoona HS -0.75 24:45.13 24:45.88
Mitchell Kersey South Paulding HS -1:31.42 24:46.97 26:18.39
Molly Niepoky Holy Innocents' Episcopal School +0.15 24:54.85 24:54.70
Natasha Cooper Woodward Academy -2:10.74 25:02.41 27:13.15
Elizabeth Johnson Blessed Trinity -49.19 25:11.46 26:00.65
Samantha Gudger Chamblee +4:46.61 30:01.68 25:15.07
Julianna Novelli Cambridge HS -1:46.00 25:16.34 27:02.34
Lee Ellis Alexander -3:20.86 25:18.63 28:39.49
Olivia Morrison Cambridge HS +1:07.79 26:27.03 25:19.24
Gracie Tilman Westminster School +3:29.20 28:51.85 25:22.65
Isabella Restrepto Blessed Trinity +4:12.61 29:37.43 25:24.82
Callie Maloney Holy Innocents' Episcopal School +1:32.89 27:10.17 25:37.28
Ella Bradford Westminster School +3.92 25:42.71 25:38.79
Josie Fumo Galloway -1:01.43 25:47.82 26:49.25
Rachel Bright Peachtree Ridge High School -36.69 25:48.33 26:25.02
Haily Ellis South Paulding HS -1:54.66 25:48.75 27:43.41
Carlie Fass Oconee County High School +17.85 26:18.81 26:00.96
Anna Farmer Central High School +1:08.04 27:11.01 26:02.97
Alisia Gomez Central High School -2:20.46 26:09.80 28:30.26
Beth McCoy Wheeler High School -51.75 26:11.38 27:03.13
Madison Malloy Westminster School -1:22.84 26:15.36 27:38.20
Adriana Shannon Peachtree Ridge High School +1:25.56 27:47.14 26:21.58
Lily Canfield Westminster School -2:09.07 26:30.52 28:39.59
Sydney Adams Northgate +2:39.93 29:19.06 26:39.13
Hannah Sanders Whitewater High School -1:20.04 27:04.68 28:24.72
Frida Johannson King's Ridge Christian School -20.11 27:16.94 27:37.05
Emma Wearing Holy Innocents' Episcopal School -25.08 27:26.00 27:51.08
Elizabeth Harrison Westminster School -1:12.82 27:26.72 28:39.54
Mackenzie Byars Starrs Mill High School +2:47.91 30:32.21 27:44.30
Anna Bouchelle Peachtree Ridge High School +31.52 28:26.22 27:54.70
Jimmy Ledford Blessed Trinity +4:56.14 33:15.83 28:19.69
Tanvi Reddy Woodward Academy +31.26 29:09.05 28:37.79
Marlen Bustamante Peachtree Ridge High School +40.34 29:29.26 28:48.92
Cameron Andrews Wheeler High School +7:29.61 36:35.45 29:05.84
Caitlin Hogan Blessed Trinity -1:55.17 29:46.91 31:42.08
Charlotte Irvin Westminster School -4:59.68 32:29.63 37:29.31
Carson Lewis Whitewater High School +1:20.00 33:57.42 32:37.42